Flag for U.S.A. Weather past 2 weeks in Macon, Georgia, U.S.A.

Now
58 °F

Sunny.


Feels Like: 58 °F
Forecast: 49 / 82 °F
Wind: No wind

Location: Middle Georgia Regional Airport


UV Index: 7 (High)

Visibility: 10 mi


Pressure: 30.02 "Hg

Humidity: 70%

Dew point: 48 °F

Location of MaconLocation

Historic Weather in Macon

°F

Macon temperature yesterday

Maximum temperature yesterday: 83 °F (at 3:53 PM)
Minimum temperature yesterday: 54 °F (at 11:53 PM)
Average temperature yesterday: 66 °F

Past Weeks' High & Low Weather Summary

 TemperatureHumidityPressure
High83 °F (Apr 23, 3:53 PM)100% (Apr 10, 5:53 AM)30.42 "Hg (Apr 10, 5:53 AM)
Low33 °F (Apr 16, 6:53 AM)20% (Apr 23, 5:53 PM)29.68 "Hg (Apr 15, 8:53 AM)
Average60 °F72%30.08 "Hg
* Reported Apr 9 8:53 AM — Apr 24 8:53 AM, Macon, Weather by CustomWeather, © 2014

Note: Actual official high and low records may vary slightly from our data, if they occured in-between our weather recording intervals... More about our weather records

Advertising

Historic Weather Conditions — Data for Previous 24 hours

 ConditionsComfort  
Time TempWeatherWind HumidityBarometerVisibility
8:53 AM
Apr 24
58 °FSunny.No wind70%30.02 "Hg10 mi
7:53 AM48 °FClear.5 mph96%30.02 "Hg10 mi
6:53 AM45 °FClear.5 mph100%29.99 "Hg10 mi
5:53 AM46 °FClear.No wind96%29.96 "Hg9 mi
4:53 AM47 °FClear.No wind97%29.94 "Hg9 mi
3:53 AM48 °FClear.3 mph96%29.93 "Hg9 mi
2:53 AM48 °FClear.No wind96%29.93 "Hg10 mi
1:53 AM49 °FClear.No wind97%29.93 "Hg9 mi
12:53 AM51 °FClear.3 mph96%29.93 "Hg10 mi
11:53 PM
Apr 23
54 °FClear.No wind90%29.93 "Hg10 mi
10:53 PM55 °FClear.3 mph87%29.92 "Hg10 mi
9:53 PM58 °FClear.No wind78%29.90 "Hg10 mi
8:53 PM62 °FSunny.No wind67%29.89 "Hg10 mi
7:53 PM74 °FSunny.5 mph32%29.86 "Hg10 mi
6:53 PM80 °FSunny.8 mph21%29.85 "Hg10 mi
5:53 PM82 °FSunny.9 mph20%29.85 "Hg10 mi
4:53 PM83 °FSunny.6 mph22%29.85 "Hg10 mi
3:53 PM83 °FSunny.10 mph24%29.86 "Hg10 mi
2:53 PM81 °FSunny.10 mph30%29.88 "Hg10 mi
1:53 PM80 °FSunny.10 mph32%29.90 "Hg10 mi
12:53 PM77 °FSunny.7 mph44%29.91 "Hg10 mi
11:53 AM74 °FSunny.7 mph52%29.93 "Hg10 mi
10:53 AM70 °FSunny.7 mph61%29.94 "Hg10 mi
Weather by CustomWeather, © 2014

See weather overview